"Pseudo-MPEC" for ZTF0GLS
Created 2020 Dec 15 17:07:31 UT using Find_Orb
Click here for an explanation of pseudo-MPECs
Astrometry: ZTF0GLS C2020 11 16.32873005 06 05.66 +42 44 52.6 ~C1F7 20.82gUNEOCPI41 ZTF0GLS C2020 11 16.43317005 05 55.63 +42 43 22.7 ~C1F7 19.94iUNEOCPI41 ZTF0GLS C2020 11 18.34881005 02 56.93 +42 15 13.6 ~BMLb 20.52gUNEOCPI41 ZTF0GLS C2020 11 18.35641005 02 56.16 +42 15 06.8 ~BMLb 19.96iUNEOCPI41 ZTF0GLS C2020 11 18.39330005 02 52.55 +42 14 33.6 ~BMLb 20.07rUNEOCPI41 ZTF0GLS C2020 11 18.44395905 02 47.60 +42 13 47.3 ~BMLb 20.06rUNEOCPI41 ZTF0GLS KC2020 12 15=@lp5u;F@$Tl$)A#I%GE7
Astrometry;TwBW-8OKU
redacted;pK
L74 ZTF0GLS KC2020 12 15+9@,3x:#C!GZNFqiIeW)roYw$O
clicko*Z/$@v#[V$W`Kl
here4K
L74 ZTF0GLS KC2020 12 15cWKfv]pH,OF1$
for;o8$sYUP:1VrCqx5+IR=O?
explanation92i
L74 Station data: (I41) Palomar Mountain--ZTF (N33.357340 W116.859780) US/California. 1.2-m f/2.44 Oschin Schmidt + CCD. (L74) AstroColauri, Naples (N40.879157 E14.211090) Italy. Orbital elements: ZTF0GLS Perihelion 2020 May 25.509077 +/- 0.859 TT = 12:13:04 (JD 2458995.009077) Epoch 2020 Dec 15.0 TT = JDT 2459198.5 Earth MOID: 0.7441 AutoNEOCP M 53.90719710 +/- 0.09 (J2000 ecliptic) n 0.26491204 +/- 0.00079 Peri. 72.83082 +/- 0.053 a 2.40105205 +/- 0.00477 Node 268.87917 +/- 0.09 e 0.3401577 +/- 0.000872 Incl. 27.49258 +/- 0.18 P 3.72 H 19.0 G 0.15 U 8.0 q 1.58431548 +/- 0.00441 Q 3.21778862 +/- 0.00587 From 9 observations 2020 Nov. 16-Dec. 15; mean residual 0".44
Residuals in arcseconds: 201116 I41 .04+ .20+ 201118 I41 .16- .10- 201215 L74 1.4- .28- 201116 I41 .13- .15- 201118 I41 .02- .09+ 201215 L74 .35+ .13- 201118 I41 .11+ .15- 201118 I41 .20+ .09+ 201215 L74 1.0+ .41+ Ephemerides (geocentric): Date (UTC) HH RA Dec delta r elong mag " sig PA ---- -- -- -- ------------- ----------- ------ ------ ----- --- ---- --- 2020 12 15 17 04 22 23.905 +33 38 08.61 1.2027 2.1582 161.3 21.6 .502 80 2020 12 15 18 04 22 21.081 +33 37 17.32 1.2030 2.1584 161.3 21.6 .539 79 2020 12 15 19 04 22 18.261 +33 36 26.03 1.2033 2.1585 161.3 21.6 .576 79 2020 12 15 20 04 22 15.445 +33 35 34.75 1.2035 2.1587 161.2 21.6 .614 79 2020 12 15 21 04 22 12.633 +33 34 43.48 1.2038 2.1589 161.2 21.6 .651 79 2020 12 15 22 04 22 09.825 +33 33 52.22 1.2041 2.1590 161.1 21.6 .689 78 2020 12 15 23 04 22 07.021 +33 33 00.97 1.2044 2.1592 161.1 21.6 .727 78 2020 12 16 00 04 22 04.222 +33 32 09.72 1.2047 2.1594 161.1 21.6 .765 78 2020 12 16 01 04 22 01.427 +33 31 18.48 1.2049 2.1595 161.0 21.6 .803 78 2020 12 16 02 04 21 58.635 +33 30 27.25 1.2052 2.1597 161.0 21.6 .842 77 2020 12 16 03 04 21 55.848 +33 29 36.02 1.2055 2.1599 161.0 21.6 .881 77 2020 12 16 04 04 21 53.065 +33 28 44.81 1.2058 2.1600 160.9 21.6 .919 77 2020 12 16 05 04 21 50.286 +33 27 53.60 1.2061 2.1602 160.9 21.6 .958 77 2020 12 16 06 04 21 47.512 +33 27 02.40 1.2064 2.1604 160.9 21.6 1.00 77 2020 12 16 07 04 21 44.741 +33 26 11.20 1.2066 2.1605 160.8 21.6 1.04 77 2020 12 16 08 04 21 41.975 +33 25 20.02 1.2069 2.1607 160.8 21.6 1.08 77 2020 12 16 09 04 21 39.213 +33 24 28.84 1.2072 2.1609 160.8 21.6 1.12 76 2020 12 16 10 04 21 36.455 +33 23 37.67 1.2075 2.1610 160.7 21.6 1.16 76 2020 12 16 11 04 21 33.701 +33 22 46.51 1.2078 2.1612 160.7 21.6 1.20 76 2020 12 16 12 04 21 30.951 +33 21 55.36 1.2081 2.1614 160.7 21.6 1.24 76 2020 12 16 13 04 21 28.206 +33 21 04.22 1.2084 2.1615 160.6 21.6 1.28 76 2020 12 16 14 04 21 25.465 +33 20 13.08 1.2087 2.1617 160.6 21.6 1.32 76 2020 12 16 15 04 21 22.727 +33 19 21.96 1.2089 2.1619 160.5 21.6 1.36 76 2020 12 16 16 04 21 19.995 +33 18 30.84 1.2092 2.1620 160.5 21.6 1.40 76 2020 12 16 17 04 21 17.266 +33 17 39.73 1.2095 2.1622 160.5 21.7 1.44 76 2020 12 16 18 04 21 14.541 +33 16 48.63 1.2098 2.1624 160.4 21.7 1.48 76 2020 12 16 19 04 21 11.821 +33 15 57.54 1.2101 2.1625 160.4 21.7 1.52 75 2020 12 16 20 04 21 09.105 +33 15 06.46 1.2104 2.1627 160.4 21.7 1.56 75 2020 12 16 21 04 21 06.393 +33 14 15.39 1.2107 2.1629 160.3 21.7 1.61 75 2020 12 16 22 04 21 03.685 +33 13 24.33 1.2110 2.1630 160.3 21.7 1.65 75 2020 12 16 23 04 21 00.982 +33 12 33.28 1.2113 2.1632 160.3 21.7 1.69 75 2020 12 17 00 04 20 58.282 +33 11 42.23 1.2116 2.1634 160.2 21.7 1.73 75 2020 12 17 01 04 20 55.587 +33 10 51.20 1.2119 2.1635 160.2 21.7 1.77 75 2020 12 17 02 04 20 52.896 +33 10 00.17 1.2122 2.1637 160.1 21.7 1.82 75 2020 12 17 03 04 20 50.210 +33 09 09.16 1.2125 2.1639 160.1 21.7 1.86 75 2020 12 17 04 04 20 47.527 +33 08 18.16 1.2128 2.1640 160.1 21.7 1.90 75 2020 12 17 05 04 20 44.849 +33 07 27.16 1.2130 2.1642 160.0 21.7 1.94 75 2020 12 17 06 04 20 42.175 +33 06 36.18 1.2133 2.1644 160.0 21.7 1.99 75 2020 12 17 07 04 20 39.505 +33 05 45.20 1.2136 2.1645 160.0 21.7 2.03 75 2020 12 17 08 04 20 36.840 +33 04 54.24 1.2139 2.1647 159.9 21.7 2.07 75 2020 12 17 09 04 20 34.178 +33 04 03.28 1.2142 2.1649 159.9 21.7 2.12 75 2020 12 17 10 04 20 31.521 +33 03 12.34 1.2145 2.1650 159.8 21.7 2.16 75 2020 12 17 11 04 20 28.869 +33 02 21.40 1.2148 2.1652 159.8 21.7 2.21 74 2020 12 17 12 04 20 26.220 +33 01 30.48 1.2151 2.1654 159.8 21.7 2.25 74 2020 12 17 13 04 20 23.576 +33 00 39.57 1.2154 2.1655 159.7 21.7 2.29 74 2020 12 17 14 04 20 20.936 +32 59 48.66 1.2157 2.1657 159.7 21.7 2.34 74 2020 12 17 15 04 20 18.300 +32 58 57.77 1.2160 2.1659 159.7 21.7 2.38 74 2020 12 17 16 04 20 15.668 +32 58 06.89 1.2163 2.1660 159.6 21.7 2.43 74